This is the latest recevied weather packets stored in our database for station/object XE2RCS-21. If no packets are shown the sender has not sent any weather packets the latest 10 day(s).
| Time | Temp. | Humidity | Pressure | Rain* | Wind** | Luminosity | Snow |
|---|---|---|---|---|---|---|---|
| 1778333450 | 22.22° C | 100% | 1010.4 hPa | - | - | - | - |
| 1778331650 | 20° C | 100% | 1009.8 hPa | - | - | - | - |
| 1778329849 | 19.44° C | 100% | 1009 hPa | - | - | - | - |
| 1778328049 | 18.89° C | 100% | 1008.3 hPa | - | - | - | - |
| 1778326249 | 19.44° C | 100% | 1008 hPa | - | - | - | - |
| 1778324449 | 19.44° C | 100% | 1007 hPa | - | - | - | - |
| 1778322649 | 19.44° C | 100% | 1006.6 hPa | - | - | - | - |
| 1778320849 | 20° C | 100% | 1005.8 hPa | - | - | - | - |
| 1778319051 | 20° C | 100% | 1005.6 hPa | - | - | - | - |
| 1778317251 | 18.89° C | 100% | 1005.9 hPa | - | - | - | - |
| 1778315450 | 19.44° C | 100% | 1005.7 hPa | - | - | - | - |
| 1778313650 | 20° C | 100% | 1005.8 hPa | - | - | - | - |
| 1778311850 | 19.44° C | 100% | 1004.6 hPa | - | - | - | - |
| 1778310050 | 20° C | 100% | 1003.7 hPa | - | - | - | - |
| 1778308250 | 20.56° C | 100% | 1005.2 hPa | - | - | - | - |
| 1778306450 | 21.67° C | 100% | 1006.4 hPa | - | - | - | - |
| 1778304650 | 21.67° C | 100% | 1012 hPa | - | - | - | - |
| 1778302849 | 23.33° C | 100% | 1015.8 hPa | - | - | - | - |
| 1778301049 | 23.89° C | 100% | 1016 hPa | - | - | - | - |
| 1778299248 | 23.89° C | 100% | 1015.5 hPa | - | - | - | - |
| 1778297451 | 23.89° C | 100% | 1015.1 hPa | - | - | - | - |
| 1778295650 | 23.89° C | 100% | 1015 hPa | - | - | - | - |
| 1778293850 | 23.33° C | 100% | 1014.9 hPa | - | - | - | - |
| 1778292050 | 24.44° C | 100% | 1015.9 hPa | - | - | - | - |
| 1778290250 | 26.67° C | 100% | 1016.2 hPa | - | - | - | - |
* Rain since midnight (hover to see other rain measurements)
** Current wind speed in m/s (hover to see current wind gust speed)